sat.trackr.live / text

‹ back to catalog

STARLINK-30267

NORAD 57663 · 2023-124A

PAYLOAD ACTIVE UNKNOWN

§ Identity

Operator
Country
US
Launch date
2023-08-22
Launch site
AFWTR
Launch vehicle
Mass (kg)
RCS (m²)

Purposes: comms

External: N2YO · Heavens-Above · Gunter

§ Orbital elements

Epoch: 2026-09-20T13:33:03.311424Z

Period
93.85 min
Inclination
53.1610°
Eccentricity
0.0001095
Mean motion
15.34391442 rev/d
Perigee alt
462.0 km
Apogee alt
463.5 km
Semi-major
6,840.9 km
B*
3.3139e-5
RAAN
19.5306°
Arg perigee
95.8251°
Mean anomaly
264.2876°
Rev number
17,343

§ Raw data

STARLINK-302671 57663U 23124A   26263.56462166  .00000743  00000+0  33139-4 0  99902 57663  53.1610  19.5306 0001095  95.8251 264.2876 15.34391442173433

JSON: /api/v1/satellites/57663 · /tle

For live sub-satellite position, see the globe view (requires WebGL).

§ Visibility from observer

Set your observer location to see the next 7 days of passes ≥ 10°. The values pass through the URL so the page stays shareable.

No JS? Fill the form by hand. The geolocation button needs JavaScript.